KABQ

Albuquerque International Sunport/Kirtland Air Force Base

Airport
ICAO code
KABQ
IATA Code
ABQ
Summary
ICAO Region
NAM
ICAO Territory
Location

Bernalillo County, New Mexico

Serving
Albuquerque
Elevation
5355 ft
Coordinates
35° 2' 34" N , 106° 36' 18" W
KCC
Airport RE
Hot and High Operations
Metar
KABQ 230352Z 30003KT 10SM BKN150 BKN200 24/15 A3022 RMK AO2 SLP159 T02390150

Description

Albuquerque International Sunport/Kirtland Air Force Base is a joint public/military (USAF) airport located 3 nm southeast of the central business district of Albuquerque, a city in Bernalillo County, New Mexico.

 

Airport map

Aerial View

SKYbrary Partners:

Safety knowledge contributed by: